Regional Weather Roundup
Issued by NWS Wakefield, VA

Home | Current Version | Previous Version | Graphics & Text | Print | Product List | Glossary On
Versions: 1 2 3 4 5 6 7 8 9 10 11 12 13 14 15 16 17 18 19 20 21 22 23 24 25 26 27
000
ASUS41 KAKQ 271815
RWRAKQ

REGIONAL WEATHER ROUNDUP
NATIONAL WEATHER SERVICE WAKEFIELD VA
200 PM EDT WED APR 27 2016

Note: "fair" indicates few or no clouds below 12,000 feet with no
significant weather and/or obstructions to visibility. * = Denotes
station may not report precipitation (e.g., rain,snow,etc.),
thunder or fog.

VAZ042-051-052>054-056-271900-
NORTHERN VIRGINIA

CITY           SKY/WX    TMP DP  RH WIND       PRES   REMARKS
WASH NATIONAL  CLOUDY    55  50  83 E5        29.91S
DULLES         CLOUDY    56  51  84 E5        29.90S
FORT BELVOIR   CLOUDY    55  51  85 VRB1      29.91S
QUANTICO       CLOUDY    57  52  83 NE5       29.91R
FREDERICKSBRG* CLOUDY    58  55  91 CALM      29.89S
STAFFORD*      CLOUDY    57  52  82 CALM      29.94S
WARRENTON      CLOUDY    59  51  73 E5        29.89S
CULPEPER*      CLOUDY    59  55  87 CALM      29.90S
MANASSAS*      CLOUDY    57  54  88 SE3       29.92R
LEESBURG*      CLOUDY    55  54  94 S5        29.91S
WINCHESTER     CLOUDY    57  50  77 N5        29.88F
FRONT ROYAL*   CLOUDY    59  54  82 N6        29.86F
LURAY*         MOCLDY    68  59  73 NE7       29.84F
$$

VAZ048-049-060>072-079>083-271900-
CENTRAL AND SOUTH CENTRAL VIRGINIA

CITY           SKY/WX    TMP DP  RH WIND       PRES   REMARKS
RICHMOND       PTSUNNY   69  60  73 N9        29.85S
CHESTERFIELD*  FAIR      73  55  53 NE8       29.85S
PETERSBURG*    FAIR      82  56  40 CALM      29.82F
HANOVER        CLOUDY    61  55  81 VRB6      29.89R HAZE
TAPPAHANNOCK*  CLOUDY    59  56  90 N5        29.89S
QUINTON*       FAIR      69  60  75 N5        29.84F
CHARLOTTSVILLE PTSUNNY   69  59  70 E10       29.85F
GORDONSVILLE*  CLOUDY    62  58  88 E3        29.87S
ORANGE*        CLOUDY    63  59  88 CALM      29.89F
LOUISA*        CLOUDY    63  61  94 E5        29.87S FOG
BUMPASS*       CLOUDY    57  56  97 NE3       29.88S
FARMVILLE*     PTSUNNY   81  57  42 S3        29.81F
CREWE*         FAIR      80  60  50 CALM      29.82F
FORT PICKETT*  NOT AVBL
CHASE CITY*    FAIR      80  56  44 CALM      29.82F
CLARKSVILLE*   MOCLDY    81  61  50 CALM      29.82F
SOUTH HILL*    CLOUDY    79  58  48 CALM      29.88S
LAWRENCEVILLE* CLOUDY    80  60  50 CALM      29.82S
EMPORIA*       FAIR     N/A N/A N/A E6        29.84S
$$

VAZ088>098-271900-
SOUTHEAST VIRGINIA

CITY           SKY/WX    TMP DP  RH WIND       PRES   REMARKS
NORFOLK        FAIR      62  54  74 E14       29.85F
VIRGINIA BEACH PTSUNNY   65  55  70 NE10      29.85F
NORFOLK NAVAL  FAIR      63  55  75 E13       29.86F
WEST POINT*    FAIR      69  58  66 N3        29.86F
SALUDA*        CLOUDY    58  55  89 E7        29.88S
NEWPORT NEWS   FAIR      66  59  78 E9        29.85F
LANGLEY AFB    FAIR      65  58  78 NE12      29.84F
FORT EUSTIS    PTSUNNY   72  59  64 E7        29.83F
WILLIAMSBURG*    N/A    N/A N/A N/A MISG      29.83S
HR EXEC AP*    FAIR      75  61  60 NE10      29.86S
FRANKLIN*      FAIR      80  60  50 W3        29.83F
US460-WAKEFLD  PTSUNNY   81  62  52 E9        29.81F
$$

VAZ020-022-025-037-045-271900-
WEST CENTRAL AND SOUTHWEST VIRGINIA

CITY           SKY/WX    TMP DP  RH WIND       PRES   REMARKS
STAUNTON*      FAIR      75  59  56 S7        29.84F
WAYNESBORO*    CLOUDY    70  58  65 MISG      29.85F
HOT SPRINGS VA CLOUDY    66  56  70 W13       29.92R
LYNCHBURG      FAIR      78  57  48 VRB3      29.84F
DANVILLE       FAIR      84  60  44 SW6       29.81F
SOUTH BOSTON*  FAIR      83  57  40 W3        29.82F
MARTINSVILLE   PTSUNNY   81  56  41 S6        29.83F
ROANOKE        PTSUNNY   79  56  45 CALM      29.84F
BLACKSBURG     CLOUDY    74  58  57 CALM      29.90F
DUBLIN*        CLOUDY    76  60  55 W9        29.88F
MARION*        CLOUDY    72  60  67 W10       29.92F
HILLSVILLE*    CLOUDY    69  60  72 NW9       29.89F
RICHLANDS*     LGT RAIN  66  40  38 NW7       29.91S
WISE*          FAIR      68  55  64 W6        29.92F
ABINGDON*      PTSUNNY   72  63  72 N5        29.89F
$$

MDZ021>025-VAZ099-100-271900-
SOUTHERN MARYLAND AND THE DELMARVA PENINSULA

CITY           SKY/WX    TMP DP  RH WIND       PRES   REMARKS
PATUXENT RIVER CLOUDY    54  49  83 E7        29.90S
BAY BRIDGE APT NOT AVBL
LEONARDTOWN    CLOUDY    54  48  82 CALM      29.91S
DOVER          CLOUDY    52  47  83 E12       29.91S
GEORGETOWN     CLOUDY    51  48  89 NE9       29.92S
EASTON         CLOUDY   N/A N/A N/A E6        29.95S
CAMBRIDGE      CLOUDY    52  48  87 E3        29.90R
SALISBURY      CLOUDY    53  49  86 NE10      29.90F
OCEAN CITY     CLOUDY    51  48  89 NE10      29.90S
WALLOPS ISLAND CLOUDY    55  51  86 NE15      29.90R
ACCOMACK*      CLOUDY   N/A N/A N/A E6        29.88S
$$

NCZ012>017-030>032-271900-
NORTH CENTRAL AND EASTERN NORTH CAROLINA

CITY           SKY/WX    TMP DP  RH WIND       PRES   REMARKS
ROANOKE RAPIDS FAIR      79  63  57 W3        29.83S
RALEIGH        MOSUNNY   83  65  54 CALM      29.83F
ELIZABETH CITY SUNNY     81  62  52 S5        29.82F
AHOSKIE*       SUNNY     81  62  52 S6        29.82F
EDENTON*       MOSUNNY   82  62  50 W6        29.83F
CURRITUCK*     SUNNY    N/A N/A N/A NE8       29.86S
KILL DEVIL HLS SUNNY     82  60  46 NW8       29.83S
MANTEO         NOT AVBL
CAPE HATTERAS  SUNNY     73  64  73 SW18G25   29.87F
TARBORO*       FAIR      84  63  48 S5        29.83F
GOLDSBORO      SUNNY     86  63  45 W9        29.82F
WASHINGTON     SUNNY     84  63  49 W5G17     29.82F
GREENVILLE     SUNNY     84  63  48 W7        29.86S
NEW BERN       MOSUNNY   85  60  42 W12       29.85F
WILMINGTON     PTSUNNY   85  66  53 SW10G20   29.87F
$$

VAZ048-271900-
ELSEWHERE

CITY           SKY/WX    TMP DP  RH WIND       PRES   REMARKS
HARRISBURG PA  DRIZZLE   50  46  86 NE5       29.91F FOG
BALTIMORE      CLOUDY    53  47  79 E3        29.91S
ANNAPOLIS        N/A     53  48  83 E6        29.91S
ANDREWS AFB    CLOUDY    53  50  89 E6        29.90R
PHILADELPHIA   CLOUDY    54  42  64 E6        29.93F
HENDERSON NC   MOSUNNY   81  58  45 CALM      29.84F
GREENSBORO     PTSUNNY   82  59  45 SW7       29.83F
ROCKY MOUNT    SUNNY     83  62  49 VRB5      29.83F
$$

VAZ100-271900-
MARINE

STATION/POSITION TIME  TEMP    WIND        PRES    WAVE   SWELL
                       AIR SEA DIR/SP/G            HT/PER HT/PER
                 (UTC) (F)     (DEG/KT/KT) (MB)    (FT/S) (FT/S)
BRANDYWINE LGT   1700           70/ 12/ 15 1013.1R
CAPE MAY NJ      1700   49 60   50/  6/  9 1012.8S
LEWES DE         1700      56   80/ 12/ 14 1012.9R
15NM E FENWICK I 1750   49 52              1012.3R   5/ 6
OCEAN-CITY-INLET 1700   51 54   70/  5/ 10 1012.1R
WACHAPREAGUE VA  1700   54 64   50/ 13/ 16 1011.3F
THOMAS POINT MD  1800   52 58  100/  6/  8 1014.2R
GOOSES REEF MD   1800   53 59   80/  4/  6 1013.7S   1
COVE POINT MD    1700   51      60/  8/ 10 1013.1F
SOLOMONS ISLAND  1700   53 61   70/  6/  9   N/A
BISHOPS HEAD MD  1700   54 63   50/  8/  9 1011.7R
PINEY POINT MD   1700           90/  4/  6   N/A
POTOMAC MD       1800   54 59   60/  8/ 10 1011.2F   1
CAMBRIDGE MD     1700   52 63   80/  9/ 10 1011.8F
LEWISETTA VA     1700   54 62   80/  6/  8 1011.9S
RAPPAHANNOCK LGT 1700           80/  4/  5 1011.7F
STINGRAY PT      1800   57 62   50/  8/ 10 1012.1R   1/ 3
YORK RVR RNG VA  1700   58      50/  7/  9 1010.9F
YORKTOWN VA      1700   59 63   90/ 12/ 12 1011.1F
JAMESTOWN VA     1800   68 67  120/ 10/ 14   N/A     0
DOMINION TERM VA 1700   64      40/  3/  8 1010.7F
KIPTOPEKE VA     1700      62   80/ 10/ 15   N/A
CHES BAY BRIDGE  1700   55 59   50/ 16/ 18 1010.9F
CAPE HENRY VA    1700   55      40/ 14/ 16   N/A
CHESAPEAKE LGHT  1700   54      40/ 15/ 16 1011.6F
WILLOUBY STN VA  1700   59      70/ 12/ 13 1012.0F
CAPE HENRY BUOY  1712      59                N/A     3/ 5
CAPE CHARLES BUO 1726      59                N/A     3/ 6   2/11
OFFSHORE WE BUOY 1721      58                N/A     3/ 6   2/10
64NM E OF VA BCH 1750   61 56  260/  2/  4 1010.6F   3/ 6   3/ 6
DUCK PIER NC     1700   75 54  280/  9/ 12 1010.1F
44100 DUCK FRF   1724      59                N/A     2/ 6
44056 DUCK FRF   1711      57                N/A     1/10
OREGON INLET NC  1700   70 68  190/ 14/ 18 1010.4F
HATTERAS NC      1700   73 65  220/ 13/ 19 1011.5F
DIAMOND SHLS NC  1750   73 72  230/ 21/ 29 1011.7F   5/ 4   2/ 7
CAPE LOOKOUT NC  1800   72     220/ 13/ 16 1011.9F
$$




USA.gov is the U.S. government's official web portal to all federal, state and local government web resources and services.